Regional Weather Roundup
Issued by NWS

Home | Current Version | Previous Version | Graphics & Text | Print | Product List | Glossary On
Versions: 1 2 3 4 5 6 7 8 9 10 11 12 13 14 15 16 17 18 19 20 21 22 23 24 25 26 27 28 29 30 31 32 33 34 35 36 37 38 39 40 41 42 43 44 45 46 47 48 49 50
000
ASUS43 KBIS 012001
RWRND

NORTH DAKOTA REGIONAL WEATHER ROUNDUP
NATIONAL WEATHER SERVICE BISMARCK ND
300 PM CDT WED APR 01 2015

NOTE: "FAIR" INDICATES FEW OR NO CLOUDS BELOW 12,000 FEET WITH NO
SIGNIFICANT WEATHER AND/OR OBSTRUCTIONS TO VISIBILITY.


NDZ001>003-009>011-017-012100-
NORTHWEST NORTH DAKOTA

CITY           SKY/WX    TMP DP  RH WIND       PRES   REMARKS
WILLISTON      PTSUNNY   54  28  36 NW25G31   29.64R
MINOT          LGT RAIN  57  35  43 W31G40    29.52R
MINOT AFB      MOSUNNY   54  38  54 NW32G43   29.51R
$$

NDZ018>021-031>035-040>046-012100-
SOUTHWEST NORTH DAKOTA

CITY           SKY/WX    TMP DP  RH WIND       PRES   REMARKS
BISMARCK       PTSUNNY   64  26  23 NW25G35   29.57S
DICKINSON      MOSUNNY   56  27  32 NW32G41   29.63R
GARRISON         N/A     59  34  39 W30G41    29.55R
HETTINGER ARPT PTSUNNY   57  19  22 W35G47    29.67R
$$

NDZ004>008-012>016-024-026-027-054-012100-
NORTHEAST NORTH DAKOTA

CITY           SKY/WX    TMP DP  RH WIND       PRES   REMARKS
GRAND FORKS    PTSUNNY   64  38  38 W17       29.34R
GRND FRKS AFB  PTSUNNY   60  40  46 NW20      29.35R
DEVILS LAKE    CLOUDY    54  43  66 W24G33    29.43R
$$

NDZ022-023-025-028>030-036>039-047>053-012100-
SOUTHEAST NORTH DAKOTA

CITY           SKY/WX    TMP DP  RH WIND       PRES   REMARKS
FARGO          PTSUNNY   71  34  25 W25G32    29.35S
JAMESTOWN      PTSUNNY   62  41  46 NW26G36   29.45R
$$




USA.gov is the U.S. government's official web portal to all federal, state and local government web resources and services.